Location: Kennington
(51.1500°N, 0.8833°E)
Time: 11:38:20
(UTC+00:00)

Cosmos 1937 Rocket - Pass Details

Date: 21 September 2020
Orbit: 747 x 779 km, 74.0° (Epoch: 30 October)

Event Time Altitude Azimuth Distance (km) Brightness Sun altitude
Rises 03:59:25 0° 335° (NNW) 3,214 6.7 -16.4°
Reaches altitude 10° 04:01:47 10° 336° (NNW) 2,282 5.9 -16.1°
Maximum altitude 04:06:58 88° 63° (ENE) 756 3.4 -15.3°
Drops below altitude 10° 04:12:06 10° 156° (SSE) 2,261 6.0 -14.6°
Sets 04:14:27 0° 157° (SSE) 3,181 6.8 -14.2°
